User: anonymous   Login
Location: Acton
(51.4942°N, 0.2232°W)
Time: 15:24:01
(UTC+00:00)
Language:

Okean 1-7 Rocket - Orbit

View from above orbital plane
View from above orbital plane
View from above satellite
View from above satellite

Ground track
Ground track

The orbit data is extracted from the following two-line orbital elements,

1 23318U 94066B   21125.93830556  .00000081  00000-0  78132-5 0  9997
2 23318  82.5385 292.7811 0022136 273.1243  86.7437 14.78905843432065
Epoch (UTC): 05 May 2021 22:31:09
Eccentricity: 0.0022136
inclination: 82.5385°
perigee height: 617 km
apogee height: 648 km
right ascension of ascending node: 292.7811°
argument of perigee: 273.1243°
revolutions per day: 14.78905843
mean anomaly at epoch: 86.7437°
orbit number at epoch: 43206

The dashed part of the orbit path shows where the satellite is in the earth's shadow,  

DLR